Weather in Tobeler

Russia / Altai Republic     49°54′53″N   88°47′34″E
temp.,
°C
wind,
m/s
gust,
m/s
humid.,
%
clouds,
%
prec.,
mm/h
press.,
hPa
HPBL,
m
27 february, sat
sat2701:00−34nne117749 0.0 104319
04:00−35nne11815 0.0 104219
07:00−35ne118210 0.0 104219
10:00−30e007313 0.0 104065
13:00−26s11719 0.0 1035242
16:00−23sw11704 0.0 1033283
19:00−29n008635 0.0 103719
22:00−31ne118596 0.0 104119
28 february, sun
sun2801:00−32ne119063 0.0 104319
04:00−34ne11940 0.0 104419
07:00−34ne11960 0.0 104619
10:00−29e01875 0.0 104477
13:00−24s11747 0.0 1039259
16:00−21sw11710 0.0 1037244
19:00−27ne00851 0.0 103920
22:00−26ene118139 0.0 104020
1 march, mon
mon101:00−27ne118170 0.0 103819
04:00−25ne117995 0.0 103624
07:00−24nne118198 0.1 103326
10:00−20nne1179100 0.0 102977
13:00−15ese1271100 0.0 1023208
16:00−12s1172100 0.0 1020248
19:00−15n0181100 0.0 102121
22:00−16ene1181100 0.0 102320
2 march, tue
tue201:00−19ene1185100 0.0 102320
04:00−20e1186100 0.0 102321
07:00−18ne1284100 0.0 102420
10:00−14nne0179100 0.0 102258
13:00−11s1174100 0.0 1019292
16:00−8sse1176100 0.0 1017270
19:00−13ene1187100 0.1 101821
22:00−13ene1181100 0.0 101821
3 march, wed
wed301:00−15e1281100 0.0 101720
04:00−16ene1180100 0.0 101520
07:00−16ne0182100 0.0 101520
10:00−12ene1282100 0.0 101470
13:00−8se117299 0.0 1012331
16:00−6sw5969100 0.1 10121287
19:00−11w497897 0.4 1016238
22:00−16w1188100 0.1 102020